Flag for Canada Weather past 2 weeks in Granby, Quebec, Canada

Now
23 °F

Cold.


Feels Like: 23 °F
Forecast: 15 / 29 °F
Wind: No wind

Location: Frelighsburg

Current Time: Dec 22, 2014 at 10:50:47 AM

Latest Report: Dec 22, 2014 at 10:00 AM


Visibility: N/A

Pressure: 30.38 "Hg

Humidity: 96%

Dew point: 22 °F

Location of GranbyLocation

Historic Weather in Granby — Graph

°F

Granby temperature yesterday

Maximum temperature yesterday: 21 °F (at 7:00 PM)
Minimum temperature yesterday: 14 °F (at 4:00 AM)
Average temperature yesterday: 18 °F

Past Weeks' High & Low Weather Summary

 TemperatureHumidityPressure
High38 °F (Dec 17, 1:00 PM)100% (Dec 9, 3:00 PM)30.81 "Hg (Dec 9, 3:00 PM)
Low5 °F (Dec 7, 8:00 PM)45% (Dec 8, 10:00 AM)29.48 "Hg (Dec 11, 1:00 AM)
Average25 °F95%30.02 "Hg
* Reported Dec 7 9:00 AM — Dec 22 9:00 AM, Granby, Weather by CustomWeather, © 2014

Note: Actual official high and low records may vary slightly from our data, if they occured in-between our weather recording intervals... More about our weather records

Advertising

Granby weather history for previous 24 hours

 ConditionsComfort  
Time TempWeatherWind HumidityBarometerVisibility
9:00 AM
Dec 22
20 °FCold.No wind96%30.37 "HgN/A
8:00 AM18 °FCold.No wind96%30.39 "HgN/A
7:00 AM16 °FCold.No wind95%30.39 "HgN/A
6:00 AM22 °FCold.No wind97%30.37 "HgN/A
5:00 AM22 °FCold.No wind97%30.36 "HgN/A
4:00 AM22 °FCold.No wind98%30.36 "HgN/A
3:00 AM22 °FCold.No wind98%30.37 "HgN/A
2:00 AM22 °FCold.No wind97%30.37 "HgN/A
1:00 AM22 °FCold.No wind97%30.37 "HgN/A
12:00 AM21 °FCold.No wind100%30.37 "HgN/A
11:00 PM
Dec 21
20 °FCold.No wind97%30.38 "HgN/A
10:00 PM19 °FCold.No wind96%30.38 "HgN/A
9:00 PM19 °FCold.No wind97%30.37 "HgN/A
8:00 PM20 °FCold.No wind96%30.37 "HgN/A
7:00 PM21 °FCold.No wind100%30.37 "HgN/A
6:00 PM20 °FCold.No wind97%30.36 "HgN/A
5:00 PM19 °FCold.No wind96%30.34 "HgN/A
4:00 PM19 °FCold.No wind96%30.34 "HgN/A
3:00 PM19 °FCold.No wind97%30.34 "HgN/A
2:00 PM18 °FCold.No wind96%30.34 "HgN/A
1:00 PM19 °FCold.No wind95%30.34 "HgN/A
12:00 PM20 °FCold.No wind96%30.34 "HgN/A
11:00 AM19 °FCold.No wind95%30.34 "HgN/A
10:00 AM17 °FCold.No wind95%30.36 "HgN/A
Weather by CustomWeather, © 2014

See weather overviewHow to use our weather pages